Regional Weather Roundup
Issued by NWS

Home | Current Version | Previous Version | Graphics & Text | Print | Product List | Glossary On
Versions: 1 2 3 4 5 6 7 8 9 10 11 12 13 14 15 16 17 18 19 20 21 22 23 24 25 26 27 28 29 30 31 32 33 34 35 36 37 38 39 40 41 42 43 44 45 46 47 48 49 50
000
ASUS43 KBIS 220810
RWRND

NORTH DAKOTA REGIONAL WEATHER ROUNDUP
NATIONAL WEATHER SERVICE BISMARCK ND
300 AM CDT FRI AUG 22 2014

NOTE: "FAIR" INDICATES FEW OR NO CLOUDS BELOW 12,000 FEET WITH NO
SIGNIFICANT WEATHER AND/OR OBSTRUCTIONS TO VISIBILITY.


NDZ001>003-009>011-017-220900-
NORTHWEST NORTH DAKOTA

CITY           SKY/WX    TMP DP  RH WIND       PRES   REMARKS
WILLISTON      CLOUDY    63  58  83 NE7       30.04R
MINOT          CLOUDY    62  60  93 N13       30.01R
MINOT AFB      CLOUDY    62  62  99 N7        30.01R
$$

NDZ018>021-031>035-040>046-220900-
SOUTHWEST NORTH DAKOTA

CITY           SKY/WX    TMP DP  RH WIND       PRES   REMARKS
BISMARCK       LGT RAIN  66  64  93 W7        30.00R
DICKINSON      LGT RAIN  62  60  93 NE3       30.01R
GARRISON         N/A     64  62  93 NE7       30.01R
HETTINGER ARPT LGT RAIN  61  59  93 NE6       30.05S
$$

NDZ004>008-012>016-024-026-027-054-220900-
NORTHEAST NORTH DAKOTA

CITY           SKY/WX    TMP DP  RH WIND       PRES   REMARKS
GRAND FORKS    MOCLDY    68  66  93 N6        29.88S
GRND FRKS AFB  CLOUDY    67  67 100 N10       29.90S
DEVILS LAKE    CLOUDY    66  61  82 N15       29.94R
$$

NDZ022-023-025-028>030-036>039-047>053-220900-
SOUTHEAST NORTH DAKOTA

CITY           SKY/WX    TMP DP  RH WIND       PRES   REMARKS
FARGO          FOG       65  64  97 NE3       29.88S VSB 1/2
JAMESTOWN      PTCLDY    65  63  93 N8        29.93R
$$




USA.gov is the U.S. government's official web portal to all federal, state and local government web resources and services.